Location: Observatoire de l'Aigle
(47.0607°N, 71.3152°W)
Time: 11:56:11
(UTC-04:00)

Amateur Radio Satellites - All Passes

Search period start: 29 July 2015 11:26
Search period end: 30 July 2015 11:26
Location: Observatoire de l'Aigle, 47.0607°N, 71.3152°W

Satellite Date Start Highest point End Downlink Frequencies (MHz)
Time Altitude Azimuth
AIST 1 29 Jul 11:28:14 11:30:29 14° 85° (E) 11:32:56
Oscar 11 29 Jul 11:30:54 11:34:34 26° 294° (WNW) 11:38:07 145.826/435.025
TIGRISAT 29 Jul 11:31:03 11:34:27 22° 269° (W) 11:37:50 435.000
UKube-1 29 Jul 11:31:11 11:35:28 61° 101° (ESE) 11:39:44 .
ANTELSAT 29 Jul 11:31:27 11:34:48 21° 269° (W) 11:38:08 437.575/2403.000
COMPASS 1 29 Jul 11:34:24 11:35:35 11° 301° (WNW) 11:36:35 437.405
POPSAT HIP 1 29 Jul 11:37:44 11:41:40 39° 263° (W) 11:45:38 437.405
CUBEBUG 1 29 Jul 11:40:48 11:44:38 30° 95° (E) 11:48:28 437.445
QB50P2 29 Jul 11:44:43 11:48:32 32° 264° (W) 11:52:20 145.880/145.840
DX 1 29 Jul 11:54:08 11:58:29 72° 287° (WNW) 12:02:48 434.975-435.025
ESTCUBE 1 29 Jul 11:54:34 11:58:58 50° 99° (E) 12:03:20 437.505/2401.250
VELOX 1 29 Jul 11:55:59 12:00:24 72° 102° (ESE) 12:04:47 145.980
BUGSAT 1 29 Jul 11:59:33 12:03:18 34° 263° (W) 12:07:00 437.445
HUMSAT D 29 Jul 12:02:33 12:06:36 40° 290° (WNW) 12:10:38 437.325/437.525
Oscar 19 29 Jul 12:06:35 12:10:32 24° 62° (ENE) 12:14:37 437.125/150
YUBILEINY 29 Jul 12:12:16 12:21:09 86° 262° (W) 12:30:00 435.215
PCSat 29 Jul 12:12:32 12:16:48 23° 324° (NW) 12:21:01 145.827
DUCHIFAT 1 29 Jul 12:14:13 12:17:10 18° 269° (W) 12:20:01 145.980
QB50P1 29 Jul 12:15:04 12:17:55 17° 270° (W) 12:20:40 145.935-145.965
HO-68 29 Jul 12:15:15 12:18:59 15° 314° (NW) 12:22:25 435.675
NANOSAT C BR1 29 Jul 12:17:47 12:20:31 16° 270° (W) 12:23:09 145.865
ZACube-1 29 Jul 12:26:10 12:28:31 14° 300° (WNW) 12:30:42 437.345
SPROUT 29 Jul 12:29:25 12:33:14 31° 95° (E) 12:37:04 437.525
AO-7 29 Jul 12:39:38 12:42:23 12° 34° (NNE) 12:45:29 29.400- 29.500
50 SAT 29 Jul 12:40:21 12:43:52 30° 292° (WNW) 12:47:20 437.505
Gurwin Techsat 1B 29 Jul 12:40:43 12:43:56 17° 58° (ENE) 12:47:21 435.225
Cosmos 2491 29 Jul 12:47:45 12:56:27 73° 95° (E) 13:05:11 435.465 / 435.565
SO-50 29 Jul 12:48:25 12:51:56 19° 332° (NNW) 12:55:26 436.795
AISAT 29 Jul 12:52:44 12:56:40 31° 293° (WNW) 13:00:32 437.250
TISAT 1 29 Jul 12:54:05 12:57:55 34° 96° (E) 13:01:47 437.305
Cosmos 2504 29 Jul 12:58:19 13:05:21 31° 64° (ENE) 13:12:48 435.465 / 435.565
O/OREOS (USA 219) 29 Jul 13:02:39 13:06:18 23° 256° (WSW) 13:09:50 437.305
AIST 1 29 Jul 13:03:23 13:07:42 59° 282° (WNW) 13:12:01
UKube-1 29 Jul 13:08:23 13:11:11 17° 299° (WNW) 13:13:51 .
CUBEBUG 1 29 Jul 13:17:10 13:20:58 30° 293° (WNW) 13:24:41 437.445
ITAMSAT 1 29 Jul 13:19:55 13:24:24 31° 64° (ENE) 13:28:57 435.822/435.867
ESTCUBE 1 29 Jul 13:32:09 13:35:32 21° 297° (WNW) 13:38:48 437.505/2401.250
VELOX 1 29 Jul 13:33:54 13:36:27 15° 300° (WNW) 13:38:51 145.980
BEESAT 29 Jul 13:37:47 13:41:06 19° 90° (E) 13:44:34 436.000
JAS-2 29 Jul 13:43:50 13:48:45 26° 57° (ENE) 13:54:17 435.910
Oscar 19 29 Jul 13:44:35 13:49:35 54° 260° (W) 13:54:38 437.125/150
SWISSCUBE 29 Jul 13:57:15 14:01:28 31° 95° (E) 14:05:43 437.505
SPROUT 29 Jul 14:05:32 14:09:15 29° 293° (WNW) 14:12:56 437.525
YUBILEINY 29 Jul 14:10:47 14:16:49 20° 283° (WNW) 14:22:27 435.215
ITUPSAT 1 29 Jul 14:16:27 14:21:00 42° 98° (E) 14:25:33 437.325
Gurwin Techsat 1B 29 Jul 14:17:58 14:23:18 85° 254° (WSW) 14:28:41 435.225
AO-7 29 Jul 14:25:29 14:33:00 40° 57° (ENE) 14:40:39 29.400- 29.500
TISAT 1 29 Jul 14:30:05 14:33:35 25° 294° (WNW) 14:37:00 437.305
SO-50 29 Jul 14:33:48 14:34:26 10° 356° (N) 14:35:03 436.795
Cosmos 2491 29 Jul 14:46:48 14:54:17 29° 298° (WNW) 15:01:35 435.465 / 435.565
Cosmos 2504 29 Jul 14:50:05 14:58:18 70° 266° (W) 15:06:49 435.465 / 435.565
ITAMSAT 1 29 Jul 14:58:50 15:03:47 41° 262° (W) 15:08:44 435.822/435.867
GONETS M04 29 Jul 14:59:16 15:01:34 11° 43° (NE) 15:04:24
CUSAT 1 29 Jul 15:00:17 15:03:39 35° 75° (ENE) 15:08:00 437.405
STARS 29 Jul 15:01:54 15:04:08 14° 88° (E) 15:06:34 437.465
BEESAT 29 Jul 15:14:39 15:19:21 56° 289° (WNW) 15:24:01 436.000
KKS-1 29 Jul 15:19:39 15:23:41 33° 96° (E) 15:27:45 437.445
HORYU 2 29 Jul 15:26:13 15:30:36 61° 72° (ENE) 15:35:02 437.375
JAS-2 29 Jul 15:27:12 15:33:12 69° 259° (W) 15:40:04 435.910
SWISSCUBE 29 Jul 15:35:01 15:39:22 35° 293° (WNW) 15:43:38 437.505
PCSat 29 Jul 15:47:26 15:48:29 11° 16° (NNE) 15:49:39 145.827
ITUPSAT 1 29 Jul 15:54:43 15:58:44 26° 296° (WNW) 16:02:38 437.325
DANDE 29 Jul 16:00:35 16:03:52 84° 263° (W) 16:08:12 436.750
Gurwin Techsat 1B 29 Jul 16:01:56 16:04:14 12° 276° (W) 16:06:14 435.225
CUTE-I 29 Jul 16:08:26 16:09:04 10° 52° (NE) 16:09:58 437.470
SO-50 29 Jul 16:14:27 16:17:06 14° 20° (NNE) 16:19:50 436.795
AO-7 29 Jul 16:17:21 16:25:35 58° 258° (WSW) 16:33:50 29.400- 29.500
STARS 29 Jul 16:36:43 16:41:07 68° 287° (WNW) 16:45:31 437.465
CUSAT 1 29 Jul 16:43:13 16:46:09 20° 264° (W) 16:49:33 437.405
Cosmos 2504 29 Jul 16:44:39 16:49:15 15° 285° (WNW) 16:53:26 435.465 / 435.565
Cubesat XI-IV 29 Jul 16:47:41 16:51:36 22° 60° (ENE) 16:55:39 437.490
Cosmos 2499 29 Jul 16:49:35 16:53:28 14° 48° (NE) 16:57:55 435.465 / 435.565
GONETS M04 29 Jul 16:53:02 17:01:23 48° 71° (ENE) 17:09:46
KKS-1 29 Jul 16:56:23 17:00:15 29° 294° (WNW) 17:04:04 437.445
HORYU 2 29 Jul 17:04:56 17:07:42 16° 271° (W) 17:10:21 437.375
JAS-2 29 Jul 17:17:45 17:20:03 12° 283° (WNW) 17:21:57 435.910
MOZHAYETS 4 29 Jul 17:24:38 17:29:19 82° 101° (E) 17:33:56
PCSat 29 Jul 17:29:14 17:33:52 28° 40° (NE) 17:38:33 145.827
CUBESAT XI-V 29 Jul 17:36:05 17:36:54 11° 84° (E) 17:37:58 437.345
CUTE-I 29 Jul 17:42:54 17:48:08 57° 70° (ENE) 17:53:25 437.470
SO-50 29 Jul 17:54:13 17:58:58 42° 43° (NE) 18:03:39 436.795
AO-7 29 Jul 18:17:55 18:20:33 11° 281° (W) 18:22:30 29.400- 29.500
Cubesat XI-IV 29 Jul 18:25:56 18:31:17 66° 258° (WSW) 18:36:39 437.490
STRAND 1 29 Jul 18:30:44 18:32:52 13° 85° (E) 18:35:15 437.568
Cosmos 2499 29 Jul 18:40:36 18:49:02 55° 73° (ENE) 18:57:45 435.465 / 435.565
BRITE-PL 29 Jul 18:49:12 18:52:55 28° 68° (ENE) 18:56:34 437.365/2234.400
GONETS M04 29 Jul 18:50:08 18:58:14 44° 272° (W) 19:06:14
MOZHAYETS 4 29 Jul 19:03:25 19:05:57 14° 301° (WNW) 19:08:18
HO-68 29 Jul 19:10:11 19:16:26 35° 59° (ENE) 19:22:47 435.675
CUBESAT XI-V 29 Jul 19:10:30 19:15:09 89° 103° (ESE) 19:19:45 437.345
PCSat 29 Jul 19:12:21 19:17:44 63° 241° (WSW) 19:23:04 145.827
GOMX 1 29 Jul 19:15:01 19:18:41 30° 68° (ENE) 19:22:20 467.674
COMPASS 1 29 Jul 19:17:42 19:19:10 12° 60° (ENE) 19:20:49 437.405
DOVE 4 29 Jul 19:18:25 19:21:27 20° 65° (ENE) 19:24:35 437.250
CUTE 1.7 + AOD 2 29 Jul 19:24:09 19:27:14 20° 64° (ENE) 19:30:27 437.475
CUTE-I 29 Jul 19:24:24 19:28:38 23° 269° (W) 19:32:45 437.470
SEEDS 29 Jul 19:26:23 19:29:10 18° 63° (ENE) 19:32:05 437.485
CANX-2 29 Jul 19:31:34 19:35:05 26° 66° (ENE) 19:38:41 2200.000
SO-50 29 Jul 19:34:58 19:39:28 35° 243° (WSW) 19:43:50 436.795
CINEMA 3 29 Jul 19:49:07 19:52:04 20° 64° (ENE) 19:55:11 145.822/145.860
PRISM 29 Jul 19:55:25 19:59:33 64° 102° (ESE) 20:03:37 437.425
AAUSAT CUBESAT 2 29 Jul 19:59:28 20:02:53 25° 67° (ENE) 20:06:23 437.432
STRAND 1 29 Jul 20:07:45 20:12:55 89° 272° (W) 20:18:01 437.568
DELFI C3 29 Jul 20:08:48 20:09:31 10° 59° (ENE) 20:10:26 145.870
ZACube-1 29 Jul 20:14:10 20:15:32 12° 59° (ENE) 20:17:05 437.345
VERMONT LUNAR 29 Jul 20:23:21 20:25:33 18° 165° (SSE) 20:27:47 437.305
BRITE-PL 29 Jul 20:27:31 20:31:28 30° 264° (W) 20:35:13 437.365/2234.400
UWE-3 29 Jul 20:29:37 20:32:40 20° 64° (ENE) 20:35:51 435.000/436.395/437.385
Cosmos 2499 29 Jul 20:34:10 20:42:02 39° 273° (W) 20:49:56 435.465 / 435.565
FUNcube-1 29 Jul 20:35:33 20:38:21 18° 63° (ENE) 20:41:18 145.935
CUBEBUG 2 29 Jul 20:38:26 20:42:03 30° 67° (ENE) 20:45:48 437.445
RS-15 29 Jul 20:40:30 20:48:26 25° 103° (ESE) 20:57:01 29.354- 29.394
CUBESAT XI-V 29 Jul 20:49:45 20:51:58 13° 301° (WNW) 20:53:58 437.345
COMPASS 1 29 Jul 20:50:01 20:54:15 86° 262° (W) 20:58:31 437.405
Oscar 11 29 Jul 20:52:01 20:56:04 41° 70° (ENE) 21:00:11 145.826/435.025
GOMX 1 29 Jul 20:53:11 20:56:52 27° 266° (W) 21:00:26 467.674
DOVE 4 29 Jul 20:55:04 20:59:01 41° 262° (W) 21:02:58 437.250
HO-68 29 Jul 20:56:56 21:03:56 56° 259° (W) 21:10:58 435.675
UKube-1 29 Jul 20:57:03 20:57:31 10° 57° (ENE) 20:58:12 .
CUTE 1.7 + AOD 2 29 Jul 20:58:45 21:02:52 46° 261° (W) 21:07:02 437.475
SEEDS 29 Jul 21:00:26 21:04:36 54° 261° (W) 21:08:48 437.485
CANX-2 29 Jul 21:06:57 21:10:53 35° 264° (W) 21:14:50 2200.000
DX 1 29 Jul 21:18:04 21:20:56 18° 62° (ENE) 21:23:55 434.975-435.025
HUMSAT D 29 Jul 21:22:11 21:25:27 23° 66° (ENE) 21:28:49 437.325/437.525
VELOX 1 29 Jul 21:22:59 21:24:45 12° 59° (ENE) 21:26:41 145.980
CINEMA 3 29 Jul 21:25:04 21:29:01 44° 262° (W) 21:33:04 145.822/145.860
PHONESAT 2.4 29 Jul 21:29:06 21:30:51 13° 157° (SSE) 21:32:40 2401.200-2431.200
PRISM 29 Jul 21:32:09 21:34:32 15° 299° (WNW) 21:36:47 437.425
AUBIESAT-1 29 Jul 21:32:13 21:35:18 17° 94° (E) 21:38:31 437.475
AAUSAT CUBESAT 2 29 Jul 21:34:30 21:38:22 34° 264° (W) 21:42:14 437.432
ISS 29 Jul 21:39:04 21:40:54 14° 136° (SE) 21:42:47 145.825
DELFI C3 29 Jul 21:39:53 21:43:57 88° 85° (E) 21:48:04 145.870
ZACube-1 29 Jul 21:47:04 21:51:15 88° 255° (WSW) 21:55:34 437.345
STRAND 1 29 Jul 21:48:33 21:51:27 15° 303° (WNW) 21:54:10 437.568
50 SAT 29 Jul 21:52:52 21:55:54 23° 66° (ENE) 21:59:02 437.505
VERMONT LUNAR 29 Jul 21:59:06 22:01:47 25° 181° (S) 22:04:26 437.305
UWE-3 29 Jul 22:04:55 22:08:55 44° 262° (W) 22:13:02 435.000/436.395/437.385
FUNcube-1 29 Jul 22:10:14 22:14:19 51° 261° (W) 22:18:30 145.935
CUBEBUG 2 29 Jul 22:15:07 22:18:45 28° 266° (W) 22:22:27 437.445
AISAT 29 Jul 22:16:44 22:20:49 39° 69° (ENE) 22:24:57 437.250
UKube-1 29 Jul 22:28:38 22:32:58 77° 73° (ENE) 22:37:18 .
Oscar 11 29 Jul 22:29:01 22:32:26 22° 268° (W) 22:35:48 145.826/435.025
M-CUBED/EXP-1 PRIME 29 Jul 22:33:30 22:38:20 73° 108° (ESE) 22:43:06 437.505
UNISAT 6 29 Jul 22:34:03 22:37:51 25° 92° (E) 22:41:45 437.425
CUBEBUG 1 29 Jul 22:39:42 22:43:43 37° 69° (ENE) 22:47:46 437.445
RS-15 29 Jul 22:48:24 22:59:22 87° 124° (ESE) 23:10:49 29.354- 29.394
DX 1 29 Jul 22:52:32 22:56:49 56° 259° (W) 23:01:07 434.975-435.025
Cosmos 2491 29 Jul 22:54:27 23:02:37 43° 69° (ENE) 23:10:50 435.465 / 435.565
VELOX 1 29 Jul 22:56:16 23:00:41 88° 255° (WSW) 23:05:08 145.980
ESTCUBE 1 29 Jul 22:56:52 23:01:22 67° 73° (ENE) 23:05:54 437.505/2401.250
HUMSAT D 29 Jul 22:57:09 23:01:00 37° 263° (W) 23:04:55 437.325/437.525
POLYITAN 1 29 Jul 23:02:03 23:04:57 18° 91° (E) 23:07:58 437.675
PHONESAT 2.4 29 Jul 23:05:13 23:08:12 26° 173° (S) 23:11:10 2401.200-2431.200
AUBIESAT-1 29 Jul 23:05:42 23:10:27 66° 292° (WNW) 23:15:06 437.475
AIST 1 29 Jul 23:07:23 23:11:29 44° 75° (ENE) 23:15:34
ISS 29 Jul 23:13:39 23:16:55 81° 153° (SSE) 23:20:11 145.825
BEESAT 3 29 Jul 23:17:20 23:18:23 11° 110° (ESE) 23:19:38 437.485
TIGRISAT 29 Jul 23:18:02 23:22:40 62° 101° (E) 23:27:20 435.000
ANTELSAT 29 Jul 23:18:36 23:23:16 65° 102° (ESE) 23:27:58 437.575/2403.000
POPSAT HIP 1 29 Jul 23:19:47 23:23:22 26° 94° (E) 23:26:59 437.405
YUBILEINY 29 Jul 23:22:58 23:29:12 24° 79° (E) 23:35:48 435.215
SPROUT 29 Jul 23:26:24 23:30:16 35° 69° (ENE) 23:34:12 437.525
QB50P2 29 Jul 23:26:34 23:30:23 32° 96° (E) 23:34:14 145.880/145.840
50 SAT 29 Jul 23:26:47 23:30:20 33° 264° (W) 23:33:55 437.505
VERMONT LUNAR 29 Jul 23:35:54 23:37:58 16° 197° (SSW) 23:40:00 437.305
BUGSAT 1 29 Jul 23:38:33 23:41:54 25° 94° (E) 23:45:20 437.445
TISAT 1 29 Jul 23:48:59 23:52:51 38° 70° (ENE) 23:56:45 437.305
ITUPSAT 1 29 Jul 23:52:39 23:53:42 11° 55° (NE) 23:54:59 437.325
AISAT 29 Jul 23:53:57 23:57:33 24° 267° (W) 00:01:04 437.250
DUCHIFAT 1 29 Jul 23:54:04 23:58:15 57° 100° (E) 00:02:25 145.980
QB50P1 29 Jul 23:55:12 23:59:25 61° 101° (ESE) 00:03:38 145.935-145.965
NANOSAT C BR1 29 Jul 23:57:33 00:01:47 64° 101° (ESE) 00:05:59 145.865
UKube-1 30 Jul 00:07:58 00:09:42 12° 273° (W) 00:11:12 .
BEESAT 2 30 Jul 00:08:33 00:12:03 28° 117° (ESE) 00:15:38 435.950
M-CUBED/EXP-1 PRIME 30 Jul 00:09:14 00:12:36 19° 305° (NW) 00:15:50 437.505
UNISAT 6 30 Jul 00:10:23 00:14:47 42° 290° (WNW) 00:19:12 437.425
CUBEBUG 1 30 Jul 00:16:37 00:20:12 24° 267° (W) 00:23:44 437.445
ESTCUBE 1 30 Jul 00:36:07 00:38:46 15° 272° (W) 00:41:15 437.505/2401.250
POLYITAN 1 30 Jul 00:37:01 00:41:09 49° 289° (WNW) 00:45:17 437.675
AUBIESAT-1 30 Jul 00:42:33 00:44:21 12° 310° (NW) 00:45:58 437.475
PHONESAT 2.4 30 Jul 00:42:45 00:45:39 24° 190° (S) 00:48:33 2401.200-2431.200
AIST 1 30 Jul 00:45:51 00:48:50 18° 273° (W) 00:51:41
BEESAT 30 Jul 00:46:53 00:51:04 31° 66° (ENE) 00:55:19 436.000
ISS 30 Jul 00:50:29 00:53:34 37° 353° (N) 00:56:39 145.825
Cosmos 2491 30 Jul 00:51:24 00:59:41 49° 271° (W) 01:07:52 435.465 / 435.565
BEESAT 3 30 Jul 00:51:39 00:55:44 89° 304° (WNW) 00:59:52 437.485
POPSAT HIP 1 30 Jul 00:55:27 00:59:16 33° 292° (WNW) 01:03:05 437.405
TIGRISAT 30 Jul 00:55:46 00:59:01 19° 298° (WNW) 01:02:09 435.000
ANTELSAT 30 Jul 00:56:27 00:59:37 18° 298° (WNW) 01:02:40 437.575/2403.000
QB50P2 30 Jul 01:02:33 01:06:13 28° 293° (WNW) 01:09:49 145.880/145.840
SPROUT 30 Jul 01:02:53 01:06:27 25° 267° (W) 01:09:57 437.525
RS-15 30 Jul 01:02:54 01:13:16 41° 334° (NNW) 01:24:00 29.354- 29.394
SWISSCUBE 30 Jul 01:06:30 01:11:07 50° 70° (ENE) 01:15:48 437.505
BUGSAT 1 30 Jul 01:13:48 01:17:25 31° 292° (WNW) 01:21:01 437.445
YUBILEINY 30 Jul 01:16:22 01:25:05 83° 279° (W) 01:33:55 435.215
AIST 2 30 Jul 01:23:08 01:27:05 38° 119° (ESE) 01:31:04 435.215
TISAT 1 30 Jul 01:25:28 01:28:46 22° 268° (W) 01:32:00 437.305
ITUPSAT 1 30 Jul 01:26:00 01:30:47 69° 73° (ENE) 01:35:36 437.325
DUCHIFAT 1 30 Jul 01:30:54 01:33:40 17° 297° (WNW) 01:36:19 145.980
QB50P1 30 Jul 01:32:13 01:34:52 16° 298° (WNW) 01:37:23 145.935-145.965
NANOSAT C BR1 30 Jul 01:34:37 01:37:10 15° 298° (WNW) 01:39:36 145.865
Cosmos 2504 30 Jul 01:35:56 01:40:00 17° 76° (ENE) 01:44:33 435.465 / 435.565
O/OREOS (USA 219) 30 Jul 01:38:32 01:42:18 28° 105° (ESE) 01:46:09 437.305
BEESAT 2 30 Jul 01:46:08 01:50:00 38° 315° (NW) 01:53:53 435.950
Oscar 19 30 Jul 01:52:54 01:57:48 42° 97° (E) 02:02:44 437.125/150
STARS 30 Jul 02:01:34 02:04:36 19° 63° (ENE) 02:07:46 437.465
KKS-1 30 Jul 02:20:36 02:24:47 44° 70° (ENE) 02:29:01 437.445
PHONESAT 2.4 30 Jul 02:21:50 02:22:56 11° 206° (SSW) 02:23:58 2401.200-2431.200
BEESAT 30 Jul 02:24:28 02:28:52 35° 264° (W) 02:33:15 436.000
ISS 30 Jul 02:27:17 02:30:26 42° 12° (NNE) 02:33:34 145.825
Gurwin Techsat 1B 30 Jul 02:31:25 02:36:05 31° 94° (E) 02:40:47 435.225
BEESAT 3 30 Jul 02:31:30 02:34:16 17° 327° (NNW) 02:37:00 437.485
JAS-2 30 Jul 02:33:27 02:38:48 21° 84° (E) 02:44:30 435.910
SWISSCUBE 30 Jul 02:45:34 02:49:18 21° 269° (W) 02:52:56 437.505
MOZHAYETS 4 30 Jul 02:54:39 02:57:14 15° 60° (ENE) 02:59:58
AIST 2 30 Jul 03:01:53 03:05:43 31° 318° (NW) 03:09:33 435.215
ITUPSAT 1 30 Jul 03:06:14 03:09:14 16° 272° (W) 03:12:04 437.325
ITAMSAT 1 30 Jul 03:08:11 03:13:17 55° 100° (E) 03:18:23 435.822/435.867
YUBILEINY 30 Jul 03:17:09 03:23:35 21° 305° (NW) 03:29:46 435.215
O/OREOS (USA 219) 30 Jul 03:17:27 03:21:37 36° 304° (NW) 03:25:49 437.305
RS-15 30 Jul 03:19:34 03:29:30 33° 8° (N) 03:39:53 29.354- 29.394
Cosmos 2504 30 Jul 03:23:54 03:31:00 85° 97° (E) 03:38:42 435.465 / 435.565
BEESAT 2 30 Jul 03:28:16 03:29:12 11° 338° (NNW) 03:30:04 435.950
Oscar 19 30 Jul 03:32:33 03:37:01 30° 296° (WNW) 03:41:26 437.125/150
STARS 30 Jul 03:36:28 03:40:43 52° 260° (W) 03:45:01 437.465
KKS-1 30 Jul 03:58:14 04:01:39 21° 268° (W) 04:04:59 437.445
ISS 30 Jul 04:03:45 04:06:58 56° 211° (SSW) 04:10:10 145.825
Gurwin Techsat 1B 30 Jul 04:11:12 04:16:12 41° 293° (WNW) 04:21:08 435.225
CUSAT 1 30 Jul 04:12:52 04:15:07 21° 96° (E) 04:17:14 437.405
AO-7 30 Jul 04:15:23 04:23:10 42° 97° (E) 04:30:58 29.400- 29.500
JAS-2 30 Jul 04:17:07 04:24:55 86° 107° (ESE) 04:32:47 435.910
MOZHAYETS 4 30 Jul 04:29:16 04:33:54 77° 257° (WSW) 04:38:35
CUBESAT XI-V 30 Jul 04:41:25 04:44:19 17° 61° (ENE) 04:47:20 437.345
ITAMSAT 1 30 Jul 04:48:22 04:52:29 24° 299° (WNW) 04:56:29 435.822/435.867
HORYU 2 30 Jul 04:50:43 04:55:16 81° 104° (ESE) 04:59:47 437.375
DANDE 30 Jul 05:16:45 05:20:05 74° 280° (W) 05:22:52 436.750
Cosmos 2504 30 Jul 05:19:01 05:24:29 21° 302° (WNW) 05:29:58 435.465 / 435.565
RS-15 30 Jul 05:33:42 05:45:04 56° 39° (NE) 05:56:59 29.354- 29.394
STRAND 1 30 Jul 05:48:40 05:52:54 27° 64° (ENE) 05:57:14 437.568
CUSAT 1 30 Jul 05:56:31 05:57:42 12° 291° (WNW) 05:58:45 437.405
GONETS M04 30 Jul 05:57:54 06:06:05 49° 89° (E) 06:14:20
CUTE-I 30 Jul 05:58:00 06:01:22 17° 88° (E) 06:04:57 437.470
JAS-2 30 Jul 06:03:03 06:09:12 26° 303° (WNW) 06:15:15 435.910
AO-7 30 Jul 06:08:10 06:16:13 53° 298° (WNW) 06:24:08 29.400- 29.500
CUBESAT XI-V 30 Jul 06:16:36 06:21:17 69° 259° (W) 06:25:58 437.345
HORYU 2 30 Jul 06:28:56 06:31:20 14° 301° (WNW) 06:33:34 437.375
Cubesat XI-IV 30 Jul 06:40:14 06:45:13 39° 97° (E) 06:50:13 437.490
BEESAT 2 30 Jul 06:47:37 06:49:11 12° 25° (NNE) 06:50:50 435.950
PRISM 30 Jul 06:47:58 06:52:08 71° 74° (ENE) 06:56:19 437.425
Cosmos 2499 30 Jul 07:21:44 07:28:17 37° 86° (E) 07:35:27 435.465 / 435.565
STRAND 1 30 Jul 07:26:57 07:31:54 46° 261° (W) 07:36:52 437.568
BEESAT 3 30 Jul 07:30:02 07:33:19 23° 38° (NE) 07:36:36 437.485
CUTE-I 30 Jul 07:36:46 07:42:05 72° 288° (WNW) 07:47:23 437.470
RS-15 30 Jul 07:46:27 07:57:51 58° 244° (WSW) 08:09:34 29.354- 29.394
M-CUBED/EXP-1 PRIME 30 Jul 07:51:08 07:54:04 19° 55° (NE) 07:57:14 437.505
GONETS M04 30 Jul 07:54:53 08:03:07 43° 291° (WNW) 08:11:17
AO-7 30 Jul 08:02:38 08:07:17 16° 321° (NW) 08:11:36 29.400- 29.500
AIST 2 30 Jul 08:04:14 08:06:39 15° 29° (NNE) 08:09:07 435.215
Cubesat XI-IV 30 Jul 08:20:30 08:25:16 33° 295° (WNW) 08:29:56 437.490
HO-68 30 Jul 08:21:38 08:27:18 25° 90° (E) 08:33:09 435.675
AUBIESAT-1 30 Jul 08:21:55 08:25:32 31° 61° (ENE) 08:29:28 437.475
BEESAT 2 30 Jul 08:24:15 08:28:15 47° 47° (NE) 08:32:11 435.950
PRISM 30 Jul 08:26:17 08:28:07 12° 272° (W) 08:29:46 437.425
BRITE-PL 30 Jul 08:27:40 08:31:54 58° 100° (E) 08:36:24 437.365/2234.400
COMPASS 1 30 Jul 08:32:07 08:33:56 13° 87° (E) 08:35:56 437.405
CUTE 1.7 + AOD 2 30 Jul 08:41:09 08:44:41 24° 93° (E) 08:48:15 437.475
SEEDS 30 Jul 08:42:16 08:45:27 21° 91° (E) 08:48:43 437.485
TIGRISAT 30 Jul 08:47:28 08:48:03 10° 57° (ENE) 08:48:51 435.000
ANTELSAT 30 Jul 08:47:44 08:48:48 11° 57° (ENE) 08:50:05 437.575/2403.000
CANX-2 30 Jul 08:48:56 08:52:49 32° 95° (E) 08:56:43 2200.000
DOVE 4 30 Jul 08:49:55 08:54:07 38° 97° (E) 08:58:35 437.250
GOMX 1 30 Jul 08:50:09 08:54:32 60° 101° (E) 08:59:10 467.674
BEESAT 3 30 Jul 09:07:34 09:11:33 54° 238° (WSW) 09:15:27 437.485
Cosmos 2499 30 Jul 09:14:04 09:21:15 50° 289° (WNW) 09:29:00 435.465 / 435.565
AAUSAT CUBESAT 2 30 Jul 09:14:10 09:17:51 29° 94° (E) 09:21:34 437.432
CINEMA 3 30 Jul 09:16:03 09:20:13 34° 96° (E) 09:24:36 145.822/145.860
CUTE-I 30 Jul 09:18:56 09:21:21 13° 306° (NW) 09:23:31 437.470
M-CUBED/EXP-1 PRIME 30 Jul 09:24:29 09:28:26 54° 255° (WSW) 09:32:44 437.505
YUBILEINY 30 Jul 09:27:48 09:32:07 15° 48° (NE) 09:36:56 435.215
ZACube-1 30 Jul 09:33:32 09:36:11 16° 88° (E) 09:39:02 437.345
UNISAT 6 30 Jul 09:36:06 09:39:52 30° 66° (ENE) 09:43:46 437.425
AIST 2 30 Jul 09:41:50 09:46:02 66° 50° (NE) 09:50:10 435.215
UWE-3 30 Jul 09:51:22 09:55:21 29° 94° (E) 09:59:27 435.000/436.395/437.385
SO-50 30 Jul 09:51:34 09:55:59 40° 119° (ESE) 10:00:36 436.795
FUNcube-1 30 Jul 09:55:31 09:59:12 25° 93° (E) 10:02:59 145.935
PCSat 30 Jul 09:56:35 10:01:55 66° 120° (ESE) 10:07:20 145.827
AUBIESAT-1 30 Jul 09:56:39 10:00:15 30° 261° (W) 10:04:04 437.475
POLYITAN 1 30 Jul 09:58:07 10:01:13 21° 64° (ENE) 10:04:25 437.675
CUBEBUG 2 30 Jul 10:01:54 10:06:20 46° 99° (E) 10:10:52 437.445
RS-15 30 Jul 10:02:40 10:08:06 13° 264° (W) 10:12:30 29.354- 29.394
BEESAT 2 30 Jul 10:02:53 10:06:01 21° 245° (WSW) 10:09:03 435.950
COMPASS 1 30 Jul 10:05:54 10:10:08 68° 286° (WNW) 10:14:19 437.405
O/OREOS (USA 219) 30 Jul 10:06:29 10:09:05 15° 44° (NE) 10:11:49 437.305
BRITE-PL 30 Jul 10:07:21 10:10:09 17° 296° (WNW) 10:12:54 437.365/2234.400
HO-68 30 Jul 10:08:34 10:15:45 72° 291° (WNW) 10:22:53 435.675
Oscar 11 30 Jul 10:12:01 10:16:20 55° 100° (E) 10:20:37 145.826/435.025
POPSAT HIP 1 30 Jul 10:15:29 10:19:06 29° 68° (ENE) 10:22:48 437.405
CUTE 1.7 + AOD 2 30 Jul 10:16:43 10:20:42 36° 291° (WNW) 10:24:37 437.475
SEEDS 30 Jul 10:17:24 10:21:27 42° 289° (WNW) 10:25:28 437.485
TIGRISAT 30 Jul 10:19:43 10:24:02 76° 75° (ENE) 10:28:30 435.000
ANTELSAT 30 Jul 10:20:30 10:24:51 81° 75° (ENE) 10:29:20 437.575/2403.000
QB50P2 30 Jul 10:22:20 10:26:09 35° 69° (ENE) 10:30:02 145.880/145.840
CANX-2 30 Jul 10:24:58 10:28:41 28° 293° (WNW) 10:32:19 2200.000
DOVE 4 30 Jul 10:28:00 10:31:47 26° 293° (WNW) 10:35:39 437.250
GOMX 1 30 Jul 10:29:25 10:32:21 17° 296° (WNW) 10:35:16 467.674
BUGSAT 1 30 Jul 10:31:35 10:34:59 27° 67° (ENE) 10:38:26 437.445
HUMSAT D 30 Jul 10:37:52 10:41:36 28° 94° (E) 10:45:23 437.325/437.525
DX 1 30 Jul 10:38:28 10:41:35 20° 92° (E) 10:44:48 434.975-435.025
VELOX 1 30 Jul 10:45:08 10:47:23 14° 88° (E) 10:49:49 145.980
ESTCUBE 1 30 Jul 10:48:56 10:50:07 11° 85° (E) 10:51:35 437.505/2401.250
DUCHIFAT 1 30 Jul 10:49:05 10:53:13 62° 73° (ENE) 10:57:22 145.980
AAUSAT CUBESAT 2 30 Jul 10:49:45 10:53:26 29° 292° (WNW) 10:57:02 437.432
QB50P1 30 Jul 10:50:37 10:54:46 68° 74° (ENE) 10:58:58 145.935-145.965
DELFI C3 30 Jul 10:50:47 10:54:54 83° 284° (WNW) 10:58:57 145.870
NANOSAT C BR1 30 Jul 10:52:45 10:56:54 70° 74° (ENE) 11:01:06 145.865
CINEMA 3 30 Jul 10:53:20 10:57:23 31° 292° (WNW) 11:01:32 145.822/145.860
50 SAT 30 Jul 10:59:13 11:02:18 22° 93° (E) 11:05:28 437.505
ZACube-1 30 Jul 11:08:31 11:13:00 63° 287° (WNW) 11:17:32 437.345
UNISAT 6 30 Jul 11:12:44 11:16:37 31° 265° (W) 11:20:34 437.425
Cosmos 2499 30 Jul 11:14:43 11:17:07 11° 316° (NW) 11:19:06 435.465 / 435.565
